QPF
0.00 0.00 0.01 0.02 0.01 0.01 0.01 0.01 0.01 0.01 0.01 0.01 0.01 0.01 0.01 0.01 0.01 0.01 0.01 0.01 0.01 0.01 0.01 0.01 0.01 0.02 0.02 0.01 0.01 0.01 0.01 0.01 0.02 0.01 0.01 0.00 0.01 0.01 0.01 0.01 0.01 0.01 0.01
0.00 0.00 0.00 0.01 0.01 0.02 0.01 0.01 0.01 0.01 0.01 0.01 0.01 0.02 0.02 0.02 0.02 0.02 0.01 0.02 0.02 0.02 0.02 0.02 0.02 0.02 0.02 0.01 0.01 0.02 0.02 0.02 0.03 0.03 0.03 0.01 0.00 0.00 0.01 0.01 0.01 0.01 0.02
0.00 0.00 0.00 0.00 0.01 0.01 0.01 0.01 0.01 0.01 0.01 0.01 0.01 0.02 0.01 0.02 0.02 0.02 0.03 0.03 0.03 0.02 0.01 0.01 0.01 0.02 0.02 0.02 0.02 0.02 0.03 0.03 0.03 0.04 0.05 0.03 0.01 0.01 0.00 0.01 0.01 0.02 0.02
0.00 0.00 0.00 0.00 0.00 0.00 0.01 0.01 0.01 0.00 0.01 0.01 0.01 0.01 0.01 0.01 0.01 0.01 0.02 0.02 0.02 0.02 0.02 0.02 0.02 0.02 0.02 0.02 0.02 0.03 0.03 0.03 0.02 0.01 0.02 0.03 0.02 0.02 0.01 0.01 0.01 0.01 0.01
0.00 0.00 0.00 0.00 0.00 0.00 0.00 0.01 0.00 0.00 0.01 0.01 0.01 0.01 0.01 0.01 0.01 0.01 0.01 0.01 0.01 0.02 0.02 0.02 0.02 0.01 0.02 0.02 0.02 0.02 0.02 0.02 0.02 0.02 0.02 0.02 0.02 0.02 0.03 0.02 0.01 0.01 0.01
0.00 0.00 0.00 0.00 0.00 0.00 0.00 0.00 0.00 0.00 0.01 0.00 0.00 0.00 0.00 0.00 0.00 0.00 0.01 0.01 0.01 0.01 0.01 0.01 0.01 0.01 0.01 0.01 0.01 0.02 0.02 0.02 0.02 0.03 0.03 0.03 0.02 0.02 0.03 0.03 0.02 0.02 0.02
0.00 0.00 0.00 0.00 0.00 0.00 0.00 0.00 0.00 0.00 0.00 0.00 0.00 0.00 0.00 0.00 0.00 0.00 0.00 0.00 0.00 0.00 0.00 0.00 0.00 0.00 0.01 0.01 0.01 0.01 0.01 0.01 0.01 0.02 0.02 0.02 0.02 0.02 0.03 0.03 0.02 0.02 0.02
0.00 0.00 0.00 0.00 0.00 0.00 0.00 0.00 0.00 0.00 0.00 0.00 0.00 0.00 0.00 0.00 0.00 0.00 0.00 0.00 0.00 0.00 0.00 0.00 0.00 0.00 0.00 0.00 0.00 0.00 0.00 0.01 0.01 0.01 0.01 0.02 0.02 0.02 0.02 0.02 0.03 0.04 0.04
0.00 0.00 0.00 0.00 0.00 0.00 0.00 0.00 0.00 0.00 0.00 0.00 0.00 0.00 0.00 0.00 0.00 0.00 0.00 0.00 0.00 0.00 0.00 0.00 0.00 0.00 0.00 0.00 0.00 0.00 0.00 0.00 0.00 0.00 0.00 0.00 0.00 0.01 0.01 0.01 0.02 0.04 0.05
0.00 0.00 0.00 0.00 0.00 0.00 0.00 0.00 0.00 0.00 0.00 0.00 0.00 0.00 0.00 0.00 0.00 0.00 0.00 0.00 0.00 0.00 0.00 0.00 0.00 0.00 0.00 0.00 0.00 0.00 0.00 0.00 0.00 0.00 0.00 0.00 0.00 0.00 0.00 0.01 0.02 0.03 0.04
0.00 0.00 0.00 0.00 0.00 0.00 0.00 0.00 0.00 0.00 0.00 0.00 0.00 0.00 0.00 0.00 0.00 0.00 0.00 0.00 0.00 0.00 0.00 0.00 0.00 0.00 0.00 0.00 0.00 0.00 0.00 0.00 0.00 0.00 0.00 0.00 0.00 0.00 0.00 0.00 0.00 0.01 0.02
0.00 0.00 0.00 0.00 0.00 0.00 0.00 0.00 0.00 0.00 0.00 0.00 0.00 0.00 0.00 0.00 0.00 0.00 0.00 0.00 0.00 0.00 0.00 0.00 0.00 0.00 0.00 0.00 0.00 0.00 0.00 0.00 0.00 0.00 0.00 0.00 0.00 0.00 0.00 0.00 0.00 0.01 0.01
0.00 0.00 0.00 0.00 0.00 0.00 0.00 0.00 0.00 0.00 0.00 0.00 0.00 0.00 0.00 0.00 0.00 0.00 0.00 0.00 0.00 0.00 0.00 0.00 0.00 0.00 0.00 0.00 0.00 0.00 0.00 0.00 0.00 0.00 0.00 0.00 0.00 0.00 0.00 0.00 0.00 0.00 0.00
0.00 0.00 0.00 0.00 0.00 0.00 0.00 0.00 0.00 0.00 0.00 0.00 0.00 0.00 0.00 0.00 0.00 0.00 0.00 0.00 0.00 0.00 0.00 0.00 0.00 0.00 0.00 0.00 0.00 0.00 0.00 0.00 0.00 0.00 0.00 0.00 0.00 0.00 0.00 0.00 0.00 0.00 0.00
0.00 0.00 0.00 0.00 0.00 0.00 0.00 0.00 0.00 0.00 0.00 0.00 0.00 0.00 0.00 0.00 0.00 0.00 0.00 0.00 0.00 0.00 0.00 0.00 0.00 0.00 0.00 0.00 0.00 0.00 0.00 0.00 0.00 0.00 0.00 0.00 0.00 0.00 0.00 0.00 0.00 0.00 0.00
0.00 0.00 0.00 0.00 0.00 0.00 0.00 0.00 0.00 0.00 0.00 0.00 0.00 0.00 0.00 0.00 0.00 0.00 0.00 0.00 0.00 0.00 0.00 0.00 0.00 0.00 0.00 0.00 0.00 0.00 0.00 0.00 0.00 0.00 0.00 0.00 0.00 0.00 0.00 0.00 0.00 0.00 0.00
0.00 0.00 0.00 0.00 0.00 0.00 0.00 0.00 0.00 0.00 0.00 0.00 0.00 0.00 0.00 0.00 0.00 0.00 0.00 0.00 0.00 0.00 0.00 0.00 0.00 0.00 0.00 0.00 0.00 0.00 0.00 0.00 0.00 0.00 0.00 0.00 0.00 0.00 0.00 0.00 0.00 0.00 0.00
0.00 0.00 0.00 0.00 0.00 0.00 0.00 0.00 0.00 0.00 0.00 0.00 0.00 0.00 0.00 0.00 0.00 0.00 0.00 0.00 0.00 0.00 0.00 0.00 0.00 0.00 0.00 0.00 0.00 0.00 0.00 0.00 0.00 0.00 0.00 0.00 0.00 0.00 0.00 0.00 0.00 0.00 0.00
0.00 0.00 0.00 0.00 0.00 0.00 0.00 0.00 0.00 0.00 0.00 0.00 0.00 0.00 0.00 0.00 0.00 0.00 0.00 0.00 0.00 0.00 0.00 0.00 0.00 0.00 0.00 0.00 0.00 0.00 0.00 0.00 0.00 0.00 0.00 0.00 0.00 0.00 0.00 0.00 0.00 0.00 0.00
0.00 0.00 0.00 0.00 0.00 0.00 0.00 0.00 0.00 0.00 0.00 0.00 0.00 0.00 0.00 0.00 0.00 0.00 0.00 0.00 0.00 0.00 0.00 0.00 0.00 0.00 0.00 0.00 0.00 0.00 0.00 0.00 0.00 0.00 0.00 0.00 0.00 0.00 0.00 0.00 0.00 0.00 0.00
0.00 0.00 0.00 0.00 0.00 0.00 0.00 0.00 0.00 0.00 0.00 0.00 0.00 0.00 0.00 0.00 0.00 0.00 0.00 0.00 0.00 0.00 0.00 0.00 0.00 0.00 0.00 0.00 0.00 0.00 0.00 0.00 0.00 0.00 0.00 0.00 0.00 0.00 0.00 0.00 0.00 0.00 0.00
0.00 0.00 0.00 0.00 0.00 0.00 0.00 0.00 0.00 0.00 0.00 0.00 0.00 0.00 0.00 0.00 0.00 0.00 0.00 0.00 0.00 0.00 0.00 0.00 0.00 0.00 0.00 0.00 0.00 0.00 0.00 0.00 0.00 0.00 0.00 0.00 0.00 0.00 0.00 0.00 0.00 0.00 0.00
0.00 0.00 0.00 0.00 0.00 0.00 0.00 0.00 0.00 0.00 0.00 0.00 0.00 0.00 0.00 0.00 0.00 0.00 0.00 0.00 0.00 0.00 0.00 0.00 0.00 0.00 0.00 0.00 0.00 0.00 0.00 0.00 0.00 0.00 0.00 0.00 0.00 0.00 0.00 0.00 0.00 0.00 0.00
0.00 0.00 0.00 0.00 0.00 0.00 0.00 0.00 0.00 0.00 0.00 0.00 0.00 0.00 0.00 0.00 0.00 0.00 0.00 0.00 0.00 0.00 0.00 0.00 0.00 0.00 0.00 0.00 0.00 0.00 0.00 0.00 0.00 0.00 0.00 0.00 0.00 0.00 0.00 0.00 0.00 0.00 0.00
0.01 0.00 0.00 0.00 0.00 0.00 0.00 0.00 0.00 0.00 0.00 0.00 0.00 0.00 0.00 0.00 0.00 0.00 0.00 0.00 0.00 0.00 0.00 0.00 0.00 0.00 0.00 0.00 0.00 0.00 0.00 0.00 0.00 0.00 0.00 0.00 0.00 0.00 0.00 0.00 0.00 0.00 0.00
0.01 0.01 0.01 0.01 0.01 0.00 0.00 0.00 0.00 0.00 0.00 0.00 0.00 0.00 0.00 0.00 0.00 0.00 0.00 0.00 0.00 0.00 0.00 0.00 0.00 0.00 0.00 0.00 0.00 0.00 0.00 0.00 0.00 0.00 0.00 0.00 0.00 0.00 0.00 0.00 0.00 0.00 0.00
MSLP
1016.02 1016.06 1016.10 1016.13 1016.15 1016.18 1016.22 1016.30 1016.42 1016.59 1016.79 1017.02 1017.26 1017.48 1017.66 1017.82 1017.93 1018.03 1018.12 1018.22 1018.35 1018.50 1018.68 1018.89 1019.12 1019.34 1019.57 1019.78 1019.96 1020.13 1020.26 1020.37 1020.45 1020.49 1020.50 1020.47 1020.41 1020.33 1020.24 1020.15 1020.07 1020.02 1020.01
1016.11 1016.24 1016.34 1016.40 1016.42 1016.42 1016.42 1016.44 1016.51 1016.63 1016.80 1017.00 1017.20 1017.39 1017.55 1017.66 1017.73 1017.78 1017.83 1017.88 1017.97 1018.09 1018.24 1018.43 1018.62 1018.82 1019.01 1019.18 1019.34 1019.47 1019.59 1019.70 1019.79 1019.86 1019.91 1019.94 1019.94 1019.91 1019.86 1019.81 1019.77 1019.75 1019.76
1016.06 1016.29 1016.48 1016.60 1016.66 1016.67 1016.66 1016.65 1016.69 1016.78 1016.91 1017.08 1017.26 1017.42 1017.55 1017.63 1017.67 1017.69 1017.69 1017.70 1017.74 1017.81 1017.92 1018.05 1018.19 1018.33 1018.46 1018.58 1018.68 1018.78 1018.88 1018.99 1019.10 1019.22 1019.32 1019.40 1019.46 1019.50 1019.51 1019.50 1019.50 1019.52 1019.55
1015.87 1016.21 1016.51 1016.72 1016.85 1016.90 1016.90 1016.90 1016.92 1016.99 1017.10 1017.25 1017.41 1017.56 1017.68 1017.75 1017.78 1017.77 1017.74 1017.72 1017.71 1017.73 1017.77 1017.83 1017.89 1017.96 1018.01 1018.06 1018.11 1018.17 1018.26 1018.36 1018.50 1018.64 1018.79 1018.93 1019.05 1019.13 1019.19 1019.23 1019.27 1019.31 1019.38
1015.59 1016.04 1016.45 1016.77 1016.98 1017.09 1017.14 1017.16 1017.18 1017.25 1017.35 1017.50 1017.66 1017.82 1017.94 1018.02 1018.05 1018.04 1018.01 1017.96 1017.91 1017.88 1017.86 1017.84 1017.82 1017.80 1017.77 1017.74 1017.74 1017.75 1017.81 1017.91 1018.06 1018.22 1018.41 1018.58 1018.73 1018.84 1018.93 1019.00 1019.07 1019.14 1019.23
1015.29 1015.83 1016.35 1016.77 1017.07 1017.26 1017.36 1017.42 1017.47 1017.54 1017.66 1017.81 1017.99 1018.16 1018.31 1018.42 1018.48 1018.50 1018.47 1018.42 1018.35 1018.28 1018.20 1018.11 1018.01 1017.91 1017.80 1017.70 1017.64 1017.61 1017.64 1017.73 1017.86 1018.04 1018.22 1018.40 1018.56 1018.68 1018.78 1018.86 1018.93 1019.01 1019.12
1015.04 1015.66 1016.26 1016.77 1017.15 1017.42 1017.58 1017.68 1017.76 1017.86 1017.99 1018.17 1018.37 1018.57 1018.76 1018.92 1019.02 1019.08 1019.09 1019.05 1018.98 1018.89 1018.77 1018.62 1018.46 1018.29 1018.11 1017.96 1017.84 1017.78 1017.78 1017.84 1017.96 1018.12 1018.29 1018.45 1018.59 1018.69 1018.77 1018.83 1018.90 1018.98 1019.09
1014.89 1015.56 1016.22 1016.79 1017.25 1017.58 1017.80 1017.95 1018.07 1018.19 1018.35 1018.55 1018.78 1019.02 1019.26 1019.46 1019.62 1019.73 1019.78 1019.78 1019.72 1019.62 1019.49 1019.31 1019.10 1018.89 1018.67 1018.47 1018.32 1018.23 1018.20 1018.24 1018.34 1018.47 1018.61 1018.74 1018.84 1018.90 1018.94 1018.97 1019.02 1019.08 1019.19
1014.86 1015.56 1016.25 1016.87 1017.37 1017.75 1018.03 1018.22 1018.38 1018.54 1018.73 1018.96 1019.21 1019.49 1019.76 1020.00 1020.21 1020.36 1020.46 1020.49 1020.46 1020.38 1020.24 1020.06 1019.84 1019.61 1019.37 1019.17 1019.00 1018.90 1018.86 1018.89 1018.96 1019.06 1019.17 1019.25 1019.30 1019.33 1019.32 1019.31 1019.32 1019.36 1019.45
1014.94 1015.63 1016.33 1016.97 1017.51 1017.93 1018.25 1018.49 1018.70 1018.90 1019.12 1019.37 1019.64 1019.93 1020.22 1020.49 1020.73 1020.91 1021.04 1021.10 1021.11 1021.05 1020.93 1020.77 1020.56 1020.34 1020.13 1019.94 1019.79 1019.70 1019.67 1019.69 1019.76 1019.84 1019.91 1019.96 1019.97 1019.94 1019.90 1019.85 1019.82 1019.83 1019.90
1015.07 1015.74 1016.42 1017.06 1017.62 1018.07 1018.44 1018.74 1019.00 1019.24 1019.49 1019.76 1020.04 1020.34 1020.62 1020.89 1021.13 1021.32 1021.46 1021.55 1021.58 1021.55 1021.47 1021.34 1021.18 1021.00 1020.83 1020.69 1020.58 1020.52 1020.52 1020.57 1020.63 1020.71 1020.76 1020.79 1020.77 1020.71 1020.63 1020.54 1020.49 1020.47 1020.51
1015.16 1015.80 1016.46 1017.09 1017.65 1018.15 1018.57 1018.93 1019.25 1019.54 1019.83 1020.11 1020.40 1020.68 1020.94 1021.19 1021.40 1021.58 1021.72 1021.81 1021.86 1021.87 1021.83 1021.75 1021.65 1021.54 1021.44 1021.36 1021.31 1021.31 1021.35 1021.42 1021.51 1021.59 1021.65 1021.66 1021.62 1021.54 1021.44 1021.33 1021.25 1021.21 1021.22
1015.14 1015.74 1016.37 1016.99 1017.58 1018.11 1018.59 1019.03 1019.42 1019.77 1020.10 1020.41 1020.69 1020.95 1021.18 1021.38 1021.56 1021.71 1021.83 1021.93 1021.99 1022.03 1022.05 1022.03 1022.01 1021.97 1021.94 1021.94 1021.96 1022.02 1022.11 1022.22 1022.33 1022.43 1022.49 1022.50 1022.46 1022.37 1022.25 1022.13 1022.03 1021.97 1021.95
1014.97 1015.53 1016.14 1016.75 1017.36 1017.94 1018.50 1019.01 1019.48 1019.91 1020.29 1020.62 1020.90 1021.14 1021.34 1021.50 1021.64 1021.76 1021.86 1021.96 1022.05 1022.13 1022.19 1022.25 1022.29 1022.33 1022.38 1022.45 1022.53 1022.64 1022.78 1022.92 1023.05 1023.16 1023.22 1023.24 1023.20 1023.11 1022.99 1022.86 1022.75 1022.67 1022.63
1014.64 1015.17 1015.75 1016.37 1017.01 1017.65 1018.28 1018.87 1019.43 1019.93 1020.36 1020.73 1021.02 1021.26 1021.43 1021.57 1021.68 1021.79 1021.89 1022.00 1022.12 1022.24 1022.36 1022.48 1022.59 1022.70 1022.81 1022.93 1023.06 1023.20 1023.35 1023.51 1023.65 1023.75 1023.82 1023.83 1023.79 1023.70 1023.59 1023.46 1023.34 1023.25 1023.20
1014.18 1014.68 1015.26 1015.89 1016.57 1017.26 1017.96 1018.64 1019.27 1019.84 1020.33 1020.74 1021.06 1021.30 1021.48 1021.62 1021.73 1021.84 1021.97 1022.10 1022.26 1022.43 1022.61 1022.78 1022.95 1023.11 1023.26 1023.40 1023.55 1023.70 1023.85 1023.99 1024.11 1024.21 1024.26 1024.26 1024.22 1024.13 1024.01 1023.89 1023.77 1023.68 1023.63
1013.67 1014.17 1014.75 1015.40 1016.10 1016.84 1017.59 1018.33 1019.03 1019.66 1020.21 1020.65 1021.01 1021.28 1021.49 1021.65 1021.80 1021.95 1022.12 1022.31 1022.52 1022.74 1022.97 1023.19 1023.39 1023.58 1023.74 1023.88 1024.01 1024.14 1024.26 1024.36 1024.46 1024.52 1024.55 1024.54 1024.48 1024.39 1024.28 1024.16 1024.05 1023.96 1023.91
1013.21 1013.72 1014.31 1014.98 1015.70 1016.46 1017.25 1018.02 1018.75 1019.42 1020.00 1020.49 1020.89 1021.20 1021.46 1021.67 1021.88 1022.10 1022.33 1022.59 1022.86 1023.14 1023.42 1023.66 1023.88 1024.06 1024.21 1024.32 1024.42 1024.50 1024.57 1024.62 1024.67 1024.70 1024.70 1024.67 1024.60 1024.51 1024.41 1024.30 1024.20 1024.12 1024.08
1012.89 1013.43 1014.03 1014.70 1015.43 1016.19 1016.98 1017.75 1018.49 1019.16 1019.76 1020.27 1020.70 1021.07 1021.38 1021.67 1021.96 1022.25 1022.56 1022.89 1023.23 1023.56 1023.86 1024.12 1024.34 1024.50 1024.61 1024.68 1024.72 1024.74 1024.75 1024.76 1024.77 1024.76 1024.73 1024.69 1024.62 1024.54 1024.45 1024.35 1024.27 1024.21 1024.18
1012.77 1013.33 1013.94 1014.61 1015.32 1016.06 1016.82 1017.56 1018.26 1018.92 1019.50 1020.03 1020.48 1020.89 1021.26 1021.62 1021.99 1022.36 1022.75 1023.15 1023.53 1023.90 1024.21 1024.47 1024.67 1024.79 1024.86 1024.88 1024.87 1024.85 1024.81 1024.78 1024.75 1024.72 1024.69 1024.65 1024.59 1024.52 1024.44 1024.37 1024.30 1024.26 1024.25
1012.83 1013.42 1014.04 1014.70 1015.37 1016.07 1016.76 1017.44 1018.09 1018.70 1019.26 1019.77 1020.24 1020.68 1021.10 1021.52 1021.95 1022.40 1022.84 1023.29 1023.70 1024.08 1024.40 1024.64 1024.80 1024.89 1024.92 1024.90 1024.85 1024.79 1024.73 1024.68 1024.65 1024.62 1024.60 1024.57 1024.54 1024.49 1024.44 1024.39 1024.34 1024.31 1024.30
1013.04 1013.65 1014.27 1014.90 1015.53 1016.16 1016.78 1017.39 1017.97 1018.52 1019.03 1019.52 1019.99 1020.44 1020.90 1021.37 1021.84 1022.33 1022.81 1023.28 1023.70 1024.07 1024.37 1024.58 1024.70 1024.76 1024.76 1024.71 1024.65 1024.58 1024.52 1024.49 1024.48 1024.48 1024.49 1024.49 1024.49 1024.48 1024.45 1024.42 1024.39 1024.36 1024.36
1013.31 1013.92 1014.52 1015.12 1015.70 1016.27 1016.82 1017.35 1017.86 1018.35 1018.82 1019.28 1019.74 1020.20 1020.67 1021.16 1021.67 1022.17 1022.66 1023.12 1023.53 1023.87 1024.13 1024.30 1024.40 1024.43 1024.40 1024.35 1024.30 1024.25 1024.23 1024.23 1024.26 1024.31 1024.37 1024.42 1024.46 1024.48 1024.48 1024.47 1024.44 1024.42 1024.41
1013.54 1014.14 1014.71 1015.27 1015.80 1016.31 1016.80 1017.27 1017.72 1018.16 1018.59 1019.04 1019.49 1019.95 1020.44 1020.94 1021.44 1021.94 1022.42 1022.85 1023.22 1023.52 1023.74 1023.87 1023.94 1023.95 1023.92 1023.89 1023.86 1023.85 1023.88 1023.94 1024.03 1024.14 1024.25 1024.35 1024.43 1024.48 1024.51 1024.51 1024.49 1024.46 1024.44
1013.66 1014.22 1014.75 1015.26 1015.75 1016.21 1016.66 1017.08 1017.50 1017.92 1018.34 1018.78 1019.23 1019.70 1020.19 1020.70 1021.19 1021.67 1022.12 1022.51 1022.83 1023.08 1023.25 1023.35 1023.39 1023.40 1023.38 1023.38 1023.39 1023.44 1023.52 1023.65 1023.79 1023.96 1024.12 1024.26 1024.38 1024.46 1024.50 1024.52 1024.50 1024.47 1024.43
1013.62 1014.12 1014.60 1015.07 1015.51 1015.94 1016.36 1016.77 1017.18 1017.59 1018.02 1018.47 1018.95 1019.44 1019.94 1020.44 1020.93 1021.38 1021.79 1022.14 1022.41 1022.61 1022.74 1022.81 1022.84 1022.84 1022.85 1022.87 1022.93 1023.03 1023.17 1023.35 1023.55 1023.76 1023.96 1024.14 1024.28 1024.38 1024.44 1024.46 1024.45 1024.41 1024.36
Thickness
5641 5646 5651 5656 5660 5663 5666 5668 5670 5671 5673 5673 5672 5672 5672 5672 5673 5673 5673 5672 5672 5671 5669 5668 5666 5663 5661 5659 5656 5653 5649 5646 5643 5639 5638 5638 5636 5633 5630 5626 5623 5619 5615
5632 5637 5641 5645 5649 5652 5655 5658 5660 5662 5664 5666 5666 5666 5666 5667 5667 5667 5666 5666 5665 5665 5664 5663 5661 5659 5656 5654 5651 5648 5644 5642 5637 5632 5629 5629 5629 5628 5625 5621 5616 5613 5608
5626 5628 5631 5635 5637 5641 5644 5648 5650 5652 5654 5657 5658 5658 5658 5658 5658 5658 5658 5658 5658 5658 5657 5656 5655 5653 5651 5649 5646 5643 5639 5636 5632 5627 5623 5620 5621 5620 5619 5614 5609 5604 5599
5619 5620 5622 5625 5627 5630 5633 5636 5639 5641 5644 5647 5648 5649 5649 5649 5648 5648 5648 5649 5649 5649 5649 5648 5647 5646 5644 5642 5640 5637 5633 5630 5626 5621 5618 5615 5613 5609 5611 5607 5601 5595 5590
5612 5613 5614 5616 5618 5620 5622 5625 5628 5630 5632 5635 5637 5638 5638 5639 5638 5639 5639 5639 5639 5639 5639 5639 5638 5637 5636 5634 5632 5629 5626 5623 5620 5616 5612 5607 5603 5600 5598 5599 5594 5587 5581
5603 5603 5604 5605 5607 5608 5611 5613 5616 5617 5620 5622 5624 5626 5627 5628 5628 5628 5628 5628 5628 5628 5627 5628 5627 5627 5626 5624 5623 5621 5618 5616 5612 5609 5605 5600 5596 5592 5588 5588 5585 5579 5572
5595 5594 5594 5595 5596 5597 5599 5601 5604 5604 5607 5609 5611 5613 5615 5616 5616 5616 5616 5616 5616 5615 5615 5616 5615 5615 5614 5614 5613 5611 5609 5606 5602 5599 5595 5591 5587 5583 5580 5577 5575 5569 5562
5586 5587 5587 5586 5586 5587 5588 5589 5591 5592 5594 5596 5598 5600 5602 5603 5603 5603 5604 5604 5603 5603 5603 5604 5603 5603 5603 5602 5601 5599 5597 5594 5591 5587 5584 5580 5575 5571 5568 5566 5562 5559 5553
5578 5578 5576 5576 5576 5577 5577 5579 5580 5581 5582 5584 5586 5587 5589 5590 5590 5590 5591 5591 5591 5592 5592 5592 5591 5591 5591 5590 5589 5587 5584 5581 5578 5574 5571 5567 5562 5558 5555 5552 5549 5546 5545
5569 5568 5567 5566 5566 5566 5567 5568 5569 5570 5570 5572 5574 5575 5575 5576 5577 5578 5578 5578 5579 5579 5579 5579 5579 5578 5577 5576 5575 5573 5571 5568 5564 5561 5558 5553 5549 5545 5542 5538 5535 5532 5530
5561 5559 5557 5557 5556 5556 5556 5557 5557 5558 5559 5560 5561 5562 5562 5564 5564 5565 5565 5566 5566 5566 5566 5566 5565 5564 5563 5562 5561 5559 5557 5554 5550 5547 5544 5539 5536 5532 5528 5524 5521 5517 5514
5552 5550 5548 5546 5546 5546 5546 5546 5547 5547 5548 5548 5549 5549 5550 5551 5552 5552 5552 5553 5553 5553 5553 5553 5552 5551 5550 5548 5547 5545 5542 5540 5536 5532 5529 5525 5522 5518 5514 5510 5506 5503 5499
5543 5540 5538 5537 5537 5536 5536 5536 5536 5537 5537 5537 5537 5538 5538 5539 5539 5539 5540 5540 5540 5540 5540 5540 5539 5537 5536 5535 5533 5531 5528 5525 5522 5519 5516 5512 5509 5504 5500 5497 5493 5489 5487
5537 5533 5531 5530 5529 5528 5527 5527 5527 5527 5527 5526 5527 5526 5526 5527 5527 5528 5528 5528 5528 5527 5527 5527 5525 5524 5522 5521 5520 5518 5515 5512 5508 5505 5503 5499 5496 5493 5489 5485 5481 5478 5473
5531 5530 5527 5524 5522 5520 5519 5519 5518 5518 5518 5517 5516 5516 5516 5516 5516 5516 5516 5516 5516 5516 5515 5514 5513 5512 5511 5509 5507 5505 5502 5499 5495 5492 5490 5487 5485 5483 5479 5475 5470 5466 5461
5532 5529 5525 5521 5518 5515 5514 5512 5511 5509 5509 5508 5507 5506 5506 5506 5506 5505 5505 5504 5504 5503 5503 5502 5502 5501 5501 5499 5496 5493 5489 5486 5483 5480 5477 5475 5472 5470 5468 5464 5461 5457 5451
5532 5528 5525 5521 5517 5513 5510 5507 5504 5502 5500 5499 5498 5498 5497 5497 5496 5495 5494 5493 5492 5492 5490 5490 5489 5489 5489 5488 5485 5482 5478 5474 5471 5468 5465 5464 5461 5458 5454 5452 5449 5446 5442
5530 5527 5522 5518 5513 5509 5505 5502 5498 5495 5493 5492 5491 5490 5490 5488 5487 5486 5484 5483 5482 5481 5479 5478 5478 5478 5478 5477 5474 5471 5467 5463 5460 5458 5455 5453 5450 5448 5445 5441 5437 5434 5430
5528 5524 5519 5514 5508 5504 5500 5496 5492 5489 5487 5486 5484 5484 5483 5481 5480 5478 5476 5474 5472 5471 5469 5468 5467 5467 5467 5467 5465 5461 5457 5454 5451 5449 5446 5444 5441 5441 5437 5432 5428 5424 5420
5519 5515 5511 5506 5502 5498 5495 5491 5487 5484 5482 5481 5479 5478 5476 5475 5473 5470 5468 5466 5464 5462 5461 5459 5458 5458 5457 5458 5456 5453 5449 5445 5443 5440 5438 5436 5434 5432 5429 5423 5419 5414 5410
5510 5507 5503 5500 5497 5493 5489 5485 5482 5480 5478 5476 5473 5471 5470 5468 5466 5463 5461 5459 5457 5454 5452 5451 5450 5449 5449 5449 5448 5445 5441 5438 5435 5432 5429 5427 5426 5424 5421 5417 5411 5407 5402
5501 5499 5496 5493 5490 5487 5484 5480 5477 5475 5472 5469 5467 5465 5463 5462 5459 5457 5454 5452 5450 5447 5445 5443 5442 5442 5441 5441 5440 5439 5436 5432 5428 5425 5422 5419 5418 5415 5412 5407 5404 5399 5393
5493 5491 5489 5485 5482 5480 5479 5476 5473 5470 5467 5464 5461 5459 5457 5455 5453 5451 5448 5445 5443 5441 5439 5437 5436 5435 5435 5433 5433 5431 5429 5426 5422 5418 5416 5413 5410 5406 5402 5398 5394 5389 5382
5485 5484 5481 5479 5476 5474 5473 5471 5469 5465 5462 5459 5456 5453 5451 5449 5447 5445 5444 5441 5438 5436 5434 5432 5431 5430 5428 5426 5425 5423 5420 5419 5415 5411 5408 5405 5402 5397 5393 5388 5383 5378 5373
5480 5478 5477 5475 5473 5470 5468 5466 5464 5461 5457 5454 5451 5448 5446 5444 5442 5440 5439 5437 5436 5434 5432 5430 5428 5425 5422 5423 5421 5417 5414 5411 5408 5405 5400 5396 5392 5387 5383 5378 5373 5368 5363
5475 5473 5472 5470 5468 5466 5464 5462 5459 5456 5453 5449 5446 5444 5442 5439 5437 5435 5433 5433 5432 5432 5431 5428 5425 5423 5421 5419 5417 5414 5411 5407 5404 5399 5392 5388 5383 5378 5374 5369 5364 5359 5354